Bellingham, WA
on Thursday, December 20, 2012

Thursday
Previous Day Next Day
Daily Summary
 ActualAverageRecord
Temperature
Mean Temperature °F 38°F  
Max Temperature 46°F 44°F 59°F (1958)
Min Temperature 36°F 32°F 11°F (1990)
Degree Days
Heating Degree Days 24 27  
Month to date heating degree days 530  
Cooling Degree Days 0 0  
Month to date cooling degree days 0  
Year to date cooling degree days 42  
Moisture
Dew Point 38°F   
Average Humidity 85    
Maximum Humidity 100    
Minimum Humidity 73    
Precipitation
Precipitation 0.05 in 0.13 in 0.88 in (1974)
Month to date precipitation 2.86  
Year to date precipitation 34.47  
Wind
Wind Speed 11 mph   
Max Wind Speed 23 mph   
Max Gust Speed 31 mph   
Visibility 10 miles   
Events Rain   

Key: T is trace of precipitation, MM is missing value
Source: NWS Daily Summary
Time(PST)TemperatureDew PointHumidity Pressure Visibility Wind DirectionWind SpeedGust SpeedPrecipitationEvents Conditions
12:02 AM 42.8°F 37.4°F 81% 29.54 in 10.0 miles ESE 8.1 mph - 0.00 in   Overcast
12:39 AM 42.8°F 37.4°F 81% 29.51 in 10.0 miles NE 4.6 mph - 0.00 in   Overcast
12:53 AM 39.9°F 37.0°F 89% 29.54 in 10.0 miles North 8.1 mph - 0.00 in   Overcast
1:53 AM 37.9°F 36.0°F 93% 29.52 in 10.0 miles NNE 4.6 mph - 0.00 in Rain Light Rain
2:38 AM 37.4°F 37.4°F 100% 29.50 in 10.0 miles Calm Calm - 0.00 in Rain Light Rain
2:53 AM 37.9°F 37.0°F 97% 29.52 in 10.0 miles North 3.5 mph - 0.00 in Rain Light Rain
3:53 AM 45.0°F 39.9°F 82% 29.50 in 10.0 miles SE 11.5 mph 17.3 mph 0.00 in Rain Light Rain
4:53 AM 46.0°F 39.9°F 79% 29.49 in 10.0 miles SSE 21.9 mph 31.1 mph 0.00 in   Overcast
5:53 AM 46.0°F 41.0°F 83% 29.50 in 10.0 miles SSE 23.0 mph 31.1 mph 0.00 in   Overcast
6:41 AM 44.6°F 41.0°F 87% 29.50 in 10.0 miles SSE 17.3 mph 24.2 mph 0.00 in Rain Light Rain
6:53 AM 45.0°F 42.1°F 90% 29.51 in 10.0 miles SSE 13.8 mph 25.3 mph 0.00 in Rain Light Rain
7:53 AM 44.1°F 41.0°F 89% 29.54 in 10.0 miles SSE 16.1 mph - 0.00 in Rain Light Rain
8:53 AM 44.1°F 39.9°F 85% 29.52 in 10.0 miles SE 11.5 mph 20.7 mph 0.01 in Rain Light Rain
9:05 AM 44.6°F 39.2°F 81% 29.50 in 10.0 miles SSE 11.5 mph 19.6 mph 0.00 in Rain Light Rain
9:53 AM 42.1°F 37.9°F 85% 29.55 in 4.0 miles SSE 13.8 mph 19.6 mph 0.01 in Rain Light Rain
10:30 AM 42.8°F 37.4°F 81% 29.55 in 10.0 miles SSE 15.0 mph 21.9 mph 0.00 in Rain Light Rain
10:53 AM 41.0°F 37.0°F 86% 29.56 in 10.0 miles SSE 11.5 mph 20.7 mph 0.00 in Rain Light Rain
11:53 AM 42.1°F 37.9°F 85% 29.58 in 10.0 miles SSE 20.7 mph 31.1 mph 0.00 in Rain Light Rain
12:53 PM 42.1°F 37.0°F 82% 29.60 in 10.0 miles SSE 16.1 mph 23.0 mph 0.00 in Rain Light Rain
1:53 PM 42.1°F 37.9°F 85% 29.63 in 10.0 miles SSE 15.0 mph 31.1 mph 0.00 in   Overcast
2:53 PM 42.1°F 39.0°F 89% 29.67 in 10.0 miles SSE 15.0 mph 21.9 mph 0.01 in Rain Light Rain
3:53 PM 42.1°F 37.9°F 85% 29.71 in 10.0 miles SSE 12.7 mph 23.0 mph 0.00 in   Overcast
4:53 PM 42.1°F 37.9°F 85% 29.73 in 10.0 miles SSE 12.7 mph 20.7 mph N/A   Mostly Cloudy
5:53 PM 43.0°F 37.0°F 80% 29.76 in 10.0 miles SSE 13.8 mph 27.6 mph N/A   Overcast
6:30 PM 42.8°F 37.4°F 81% 29.75 in 10.0 miles SSE 13.8 mph 20.7 mph 0.00 in   Overcast
6:53 PM 43.0°F 37.0°F 80% 29.79 in 10.0 miles South 10.4 mph - 0.00 in   Overcast
7:53 PM 42.1°F 37.0°F 82% 29.80 in 10.0 miles SSE 13.8 mph 20.7 mph 0.02 in Rain Light Rain
8:53 PM 43.0°F 36.0°F 76% 29.81 in 10.0 miles SSE 12.7 mph 17.3 mph 0.00 in   Overcast
9:53 PM 43.0°F 37.0°F 80% 29.83 in 10.0 miles SE 10.4 mph - N/A   Mostly Cloudy
10:53 PM 41.0°F 33.1°F 73% 29.84 in 10.0 miles ENE 5.8 mph - N/A   Partly Cloudy
11:53 PM 36.0°F 33.1°F 89% 29.84 in 10.0 miles NNE 4.6 mph - N/A   Partly Cloudy
Moon Phase
Dec. 20 Dec. 28 Jan. 04 Jan. 11 Jan. 18
Sunrise:08:00 AM (PST) Moon Rise:12:00 PM (PST)12/20
Sunset:04:15 PM (PST) Moon Set:12:25 AM (PST)12/20

Copyright © 2014 The Weather Underground, Inc.